Regional Weather Roundup
Issued by NWS

Home | Current Version | Previous Version | Graphics & Text | Print | Product List | Glossary On
Versions: 1 2 3 4 5 6 7 8 9 10 11 12 13 14 15 16 17 18 19 20 21 22 23 24 25 26 27 28 29 30 31 32 33 34 35 36 37 38 39 40 41 42 43 44 45 46 47 48 49 50
000
ASUS43 KIND 260009
RWRIN

WEATHER ROUNDUP FOR INDIANA
NATIONAL WEATHER SERVICE INDIANAPOLIS IN
700 PM EST SAT FEB 25 2017

NOTE: "FAIR" INDICATES FEW OR NO CLOUDS BELOW 12,000 FEET WITH NO
SIGNIFICANT WEATHER AND/OR OBSTRUCTIONS TO VISIBILITY.

* - STATION DOES NOT REPORT WEATHER SUCH AS PRECIPITATION OR FOG.

+ - STATION NOT QUALITY CONTROLLED BY THE NATIONAL WEATHER SERVICE.
    USE DATA WITH CAUTION...ESPECIALLY DEWPOINT AND RELATIVE
    HUMIDITY OBSERVATIONS.

INZ001>003-010>013-019-020-260100-
NORTHWEST INDIANA

CITY           SKY/WX    TMP DP  RH WIND       PRES   REMARKS
GARY /AIRPORT/ MOCLDY    28  14  54 W14G26    29.98R WCI  17
KNOX *+        CLOUDY    28  -4  24 NW17      29.97R WCI  16
LA PORTE +     FLURRIES  26  17  68 NW9       29.96R WCI  16
6HR MIN TEMP:  24; 6HR MAX TEMP:  27;

MICHIGAN CITY+ CLOUDY    27  16  63 W12G17    29.97R WCI  16
MONTICELLO +   CLOUDY    28  17  64 W20       29.99R WCI  15
6HR MIN TEMP:  26; 6HR MAX TEMP:  32;

RENSSELAER +     N/A     30  18  59 W15G22    29.99R WCI  19
VALPARAISO     CLOUDY    28  17  63 W15       29.97R WCI  16
6HR MIN TEMP:  26; 6HR MAX TEMP:  32;


$$

LMZ046-743>745-260100-
SOUTHERN LAKE MICHIGAN

STATION/POSITION TIME  TEMP    WIND        PRES    WAVE
                       AIR SEA DIR/SP/G            HT
                 (UTC) (F)     (DEG/KT/KT) (MB)    (FT)
BURNS HARBOR     2340   27     300/ 15/ 20 1015.2R
MICHIGAN CITY    2340   26     260/ 22/ 23   N/A

$$

INZ004-005-014>016-021>024-260100-
NORTH CENTRAL INDIANA

CITY           SKY/WX    TMP DP  RH WIND       PRES   REMARKS
GOSHEN         CLOUDY    25  15  66 W12       29.94R WCI  14
6HR MIN TEMP:  25; 6HR MAX TEMP:  27; 6HR PCP: TRACE;

LOGANSPORT +   CLOUDY    30  18  59 W16G22    29.99R WCI  19
PERU/GRISSOM   CLOUDY    29  18  63 W15       29.95R WCI  18
6HR MIN TEMP:  26; 6HR MAX TEMP:  29; 6HR PCP: TRACE;

ROCHESTER +    MOCLDY    30  18  59 W10       29.96R WCI  21
SOUTH BEND     FLURRIES  24  17  74 W10       29.95R WCI  14
6HR MIN TEMP:  23; 6HR MAX TEMP:  26; 6HR PCP: TRACE;

WARSAW +       FLURRIES  27  16  63 W14G21    29.94R WCI  15

$$

INZ006>009-017-018-025>027-260100-
NORTHEAST INDIANA

CITY           SKY/WX    TMP DP  RH WIND       PRES   REMARKS
ANGOLA *+      CLOUDY    25  19  80 W13       29.91R WCI  13
AUBURN +       CLOUDY    28  18  64 W14G21    29.93R WCI  17
FORT WAYNE     FLURRIES  27  18  69 W18G30    29.94R WCI  14
6HR MIN TEMP:  27; 6HR MAX TEMP:  29; 6HR PCP: TRACE;

HUNTINGTON +   CLOUDY    28  17  65 W9        29.95R WCI  19
6HR MIN TEMP:  25; 6HR MAX TEMP:  28;

KENDALLVILLE + FLURRIES  25  18  76 NW7G20    29.93R WCI  17

$$

INZ028-029-035-036-043>045-051>053-260100-
WEST CENTRAL INDIANA

CITY           SKY/WX    TMP DP  RH WIND       PRES   REMARKS
LAFAYETTE      CLOUDY    29  18  63 W16       30.01R WCI  17
6HR MIN TEMP:  25; 6HR MAX TEMP:  29; 6HR PCP: TRACE;

TERRE HAUTE    PTCLDY    33  13  43 W14       30.05R WCI  23
6HR MIN TEMP:  31; 6HR MAX TEMP:  37;


$$

INZ030>032-037>040-046>048-054>057-064-065-260100-
CENTRAL INDIANA

CITY           SKY/WX    TMP DP  RH WIND       PRES   REMARKS
CP ATTERBURY + PTCLDY    32  18  55 W6        30.03R WCI  26
COLUMBUS       PTCLDY    32  18  55 W9        30.03R WCI  24
FRANKFORT +    MOCLDY    30  20  66 W17       30.01R WCI  19
6HR MIN TEMP:  28; 6HR MAX TEMP:  32;

GREENWOOD *+   PTCLDY    32  17  52 W13G21    30.01R WCI  22
6HR MIN TEMP:  29; 6HR MAX TEMP:  33;

INDIANAPOLIS   PTCLDY    30  15  53 W15       30.00R WCI  19
6HR MIN TEMP:  28; 6HR MAX TEMP:  33; 6HR PCP: TRACE;

-EAGLE CREEK   PTCLDY    31  16  54 W13       30.00R WCI  21
6HR MIN TEMP:  28; 6HR MAX TEMP:  32; 6HR PCP: TRACE;

MARION +       CLOUDY    28  21  75 W22       29.98R WCI  14
MT COMFORT *+  CLOUDY    30  18  59 W13       30.00R WCI  20
SHELBYVILLE    MOCLDY    33  14  45 W20       30.00R WCI  21
6HR MIN TEMP:  30; 6HR MAX TEMP:  34; 6HR PCP: TRACE;

ZIONSVILLE +   MOCLDY    29  20  70 W9G17     30.00R WCI  20
6HR MIN TEMP:  25; 6HR MAX TEMP:  30;


$$

INZ033-034-041-042-049-050-058-059-260100-
EAST CENTRAL INDIANA

CITY           SKY/WX    TMP DP  RH WIND       PRES   REMARKS
MUNCIE         CLOUDY    30  17  58 W17G24    29.97R WCI  18
6HR MIN TEMP:  27; 6HR MAX TEMP:  30; 6HR PCP: TRACE;


$$

INZ060-061-067>069-081>083-085>088-260100-
SOUTHWEST INDIANA

CITY           SKY/WX    TMP DP  RH WIND       PRES   REMARKS
EVANSVILLE     CLEAR     36  15  42 W12G18    30.11R
6HR MIN TEMP:  36; 6HR MAX TEMP:  42;

HUNTINGBURG *+ CLEAR     32  19  58 W8        30.09R WCI  25
6HR MIN TEMP:  32; 6HR MAX TEMP:  39;

WASHINGTON +   MOCLDY    34  15  47 W8        30.08R WCI  27
6HR MIN TEMP:  33; 6HR MAX TEMP:  38;


$$

INZ062-063-066-070>080-084-089>092-260100-
SOUTH CENTRAL AND SOUTHEAST INDIANA

CITY           SKY/WX    TMP DP  RH WIND       PRES   REMARKS
BLOOMINGTON    MOCLDY    32  15  49 W9G18     30.03R WCI  24
6HR MIN TEMP:  29; 6HR MAX TEMP:  34; 6HR PCP: TRACE;

MADISON *+     PTCLDY    32  18  55 W6        30.05R WCI  26
NORTH VERNON + PTCLDY    32  18  55 W13       30.03R WCI  22
SEYMOUR +      PTCLDY    32  18  55 W9        30.05R WCI  24

$$





USA.gov is the U.S. government's official web portal to all federal, state and local government web resources and services.